DW4238 Weather Reports


Display with metric or nautical units.
time (UTC)temp
F
wind
direction
speed
MPH
gust
MPH
rain 1hr
in
rain 24hr
in
rain mn
in
humidity
%
barometer
mb
20260507060531 63 355 7.0 13.0 0.00 0.00 0.00 85 1013.9
20260507060024 63 24 8.0 13.0 0.00 0.00 0.00 85 1014.1
20260507055533 63 26 5.0 12.0 0.00 0.00 0.00 84 1013.9
20260507055042 63 360 7.0 16.0 0.00 0.00 0.00 84 1013.9
20260507054535 63 360 10.0 16.0 0.00 0.00 0.00 84 1013.9
20260507054023 63 15 7.0 11.0 0.00 0.00 0.00 84 1013.9
20260507053552 63 5 6.0 15.0 0.00 0.00 0.00 84 1013.5
20260507053022 63 40 9.0 15.0 0.00 0.00 0.00 84 1012.8
20260507052539 63 355 6.0 13.0 0.00 0.00 0.00 84 1013.8
20260507052048 63 339 7.0 12.0 0.00 0.00 0.00 84 1013.6
20260507051539 63 360 6.0 12.0 0.00 0.00 0.00 84 1013.3
20260507051028 63 349 5.0 12.0 0.00 0.00 0.00 83 1013.6
20260507050558 63 18 6.0 13.0 0.00 0.00 0.00 83 1013.7
20260507050057 63 349 7.0 15.0 0.00 0.00 0.00 83 1014.0
20260507045558 63 46 7.0 15.0 0.00 0.00 0.00 83 1013.6
20260507045108 63 10 5.0 13.0 0.00 0.00 0.00 83 1013.3
20260507044026 63 342 7.0 12.0 0.00 0.00 0.00 83 1013.4
20260507043634 63 15 6.0 14.0 0.00 0.00 0.00 83 1013.5
20260507043038 63 360 6.0 11.0 0.00 0.00 0.00 83 1013.4
20260507042548 63 24 6.0 14.0 0.00 0.00 0.00 83 1013.5
20260507041609 64 341 9.0 13.0 0.00 0.00 0.00 83 1013.4
20260507041058 64 5 7.0 14.0 0.00 0.00 0.00 83 1013.4
20260507040058 64 321 7.0 15.0 0.00 0.00 0.00 83 1013.4
20260507035541 64 32 6.0 12.0 0.00 0.00 0.00 83 1013.1
20260507034602 64 5 8.0 15.0 0.00 0.00 0.00 83 1013.3
20260507034032 64 24 8.0 15.0 0.00 0.00 0.00 83 1013.2
20260507033635 64 345 7.0 13.0 0.00 0.00 0.00 83 1013.1
20260507033044 64 5 7.0 15.0 0.00 0.00 0.00 83 1013.0
20260507032554 64 360 10.0 15.0 0.00 0.00 0.00 83 1013.0
20260507031615 64 347 8.0 15.0 0.00 0.00 0.00 83 1013.1
20260507031057 64 28 9.0 15.0 0.00 0.00 0.00 83 1012.7
20260507025605 64 313 9.0 16.0 0.00 0.00 0.00 83 1012.8
20260507025115 64 349 10.0 16.0 0.00 0.00 0.00 83 1012.7
20260507024534 64 306 8.0 16.0 0.00 0.00 0.00 83 1013.0
20260507024046 64 355 6.0 16.0 0.00 0.00 0.00 83 1012.3
20260507023553 64 343 10.0 14.0 0.00 0.00 0.00 83 1012.2
20260507023117 64 323 9.0 15.0 0.00 0.00 0.00 83 1012.1
20260507022531 64 340 8.0 15.0 0.00 0.00 0.00 83 1012.2
20260507022135 64 360 8.0 15.0 0.00 0.00 0.00 83 1012.0
20260507021539 64 340 11.0 15.0 0.00 0.00 0.00 83 1011.9
20260507021043 64 360 9.0 15.0 0.00 0.00 0.00 83 1012.0
20260507020112 64 346 7.0 14.0 0.00 0.00 0.00 83 1011.7
20260507015611 64 15 10.0 15.0 0.00 0.00 0.00 83 1011.7
20260507014610 65 338 11.0 15.0 0.00 0.00 0.00 83 1011.5
20260507014120 65 309 8.0 15.0 0.00 0.00 0.00 82 1011.6
20260507013607 65 360 5.0 12.0 0.00 0.00 0.00 82 1011.3
20260507013032 65 333 8.0 13.0 0.00 0.00 0.00 82 1011.4
20260507012541 65 322 7.0 13.0 0.00 0.00 0.00 82 1011.3
20260507011602 65 340 8.0 13.0 0.00 0.00 0.00 82 1010.9
20260507011112 65 355 6.0 13.0 0.00 0.00 0.00 82 1011.0
20260507010113 65 316 10.0 15.0 0.00 0.00 0.00 82 1010.7
20260507005556 65 323 9.0 13.0 0.00 0.00 0.00 82 1010.5
20260507004618 66 327 10.0 15.0 0.00 0.00 0.00 81 1010.5
20260507004032 66 330 6.0 15.0 0.00 0.00 0.00 81 1010.7
20260507003054 66 327 10.0 17.0 0.00 0.00 0.00 80 1010.3
20260507002543 67 325 9.0 16.0 0.00 0.00 0.00 80 1010.3
20260507001603 67 336 9.0 18.0 0.00 0.00 0.00 80 1010.2
20260507001113 67 350 11.0 18.0 0.00 0.00 0.00 80 1010.2
20260507000618 67 360 8.0 14.0 0.00 0.00 0.00 79 1010.2
20260507000045 68 355 8.0 15.0 0.00 0.00 0.00 79 1010.0
20260506235028 68 348 8.0 15.0 0.00 0.00 0.00 79 1010.1
20260506234033 68 5 12.0 18.0 0.00 0.00 0.00 78 1009.9
20260506233051 68 338 8.0 17.0 0.00 0.00 0.00 78 1009.8
20260506232602 68 340 9.0 17.0 0.00 0.00 0.00 78 1009.7
20260506232105 69 333 10.0 17.0 0.00 0.00 0.00 78 1009.6
20260506231531 69 345 10.0 17.0 0.00 0.00 0.00 78 1009.6
20260506231038 69 342 10.0 16.0 0.00 0.00 0.00 78 1009.5
20260506230105 69 346 10.0 15.0 0.00 0.00 0.00 78 1009.5
20260506225608 69 326 10.0 15.0 0.00 0.00 0.00 77 1009.6
20260506224616 69 329 11.0 19.0 0.00 0.00 0.00 78 1009.6
20260506224117 69 360 12.0 19.0 0.00 0.00 0.00 78 1009.6
20260506223606 69 355 10.0 17.0 0.00 0.00 0.00 78 1009.6
20260506223025 69 331 10.0 17.0 0.00 0.00 0.00 78 1009.5
20260506222535 69 360 12.0 17.0 0.00 0.00 0.00 79 1009.4
20260506221536 69 355 12.0 21.0 0.00 0.00 0.00 78 1009.6
20260506221050 69 338 13.0 21.0 0.00 0.00 0.00 78 1009.4
20260506220111 71 321 10.0 16.0 0.00 0.00 0.00 79 1009.5
20260506215554 71 330 11.0 19.0 0.00 0.00 0.00 78 1009.4
20260506214621 73 347 12.0 18.0 0.00 0.00 0.00 79 1009.2
20260506214103 74 317 10.0 16.0 0.00 0.00 0.00 80 1009.1
20260506213614 75 326 10.0 19.0 0.00 0.00 0.00 79 1009.1
20260506213033 76 346 12.0 19.0 0.00 0.00 0.00 79 1009.0
20260506212550 77 342 9.0 17.0 0.00 0.00 0.00 81 1008.8
20260506211550 78 9 10.0 15.0 0.00 0.00 0.00 80 1008.8
20260506211033 79 321 10.0 15.0 0.00 0.00 0.00 79 1008.8
20260506205611 80 331 5.0 11.0 0.00 0.00 0.00 80 1008.9
20260506205118 80 343 4.0 10.0 0.00 0.00 0.00 81 1008.7
20260506204535 80 355 7.0 11.0 0.00 0.00 0.00 80 1008.8
20260506204026 80 300 8.0 11.0 0.00 0.00 0.00 80 1008.8
20260506203637 80 335 5.0 8.0 0.00 0.00 0.00 79 1008.8
20260506203041 80 338 5.0 12.0 0.00 0.00 0.00 81 1008.7
20260506202551 80 341 8.0 12.0 0.00 0.00 0.00 80 1008.8
20260506201551 80 17 5.0 9.0 0.00 0.00 0.00 80 1008.7
20260506201101 80 320 4.0 9.0 0.00 0.00 0.00 80 1008.7
20260506200100 79 28 3.0 7.0 0.00 0.00 0.00 81 1008.8
20260506195547 79 58 3.0 7.0 0.00 0.00 0.00 82 1008.9
20260506194547 79 34 4.0 7.0 0.00 0.00 0.00 81 1009.1
20260506194030 78 106 3.0 8.0 0.00 0.00 0.00 82 1009.1
20260506193055 77 28 5.0 10.0 0.00 0.00 0.00 82 1009.1
20260506192702 77 18 7.0 10.0 0.00 0.00 0.00 82 1008.9
20260506192118 76 64 2.0 6.0 0.00 0.00 0.00 83 1008.8
20260506191534 76 57 3.0 9.0 0.00 0.00 0.00 84 1008.9
20260506191045 75 61 4.0 9.0 0.00 0.00 0.00 84 1009.0
20260506190106 74 22 4.0 6.0 0.00 0.00 0.00 84 1009.2
20260506185618 73 29 4.0 6.0 0.00 0.00 0.00 84 1009.4
20260506185121 73 16 4.0 9.0 0.00 0.00 0.00 83 1009.4
20260506184547 73 37 5.0 9.0 0.00 0.00 0.00 84 1009.6
20260506184032 72 44 3.0 11.0 0.00 0.00 0.00 85 1009.6
20260506183036 71 331 5.0 13.0 0.00 0.00 0.00 85 1009.5
20260506182547 71 13 9.0 13.0 0.00 0.00 0.00 84 1009.7
20260506181606 69 350 7.0 13.0 0.00 0.00 0.00 87 1009.9
20260506181118 68 323 6.0 13.0 0.00 0.00 0.00 86 1010.0
20260506180622 68 348 8.0 14.0 0.00 0.00 0.00 87 1010.1
20260506180047 67 360 9.0 15.0 0.00 0.00 0.00 87 1010.0
20260506175551 67 326 10.0 14.0 0.00 0.00 0.00 87 1010.2
20260506175101 67 319 9.0 20.0 0.00 0.00 0.00 87 1010.2
20260506174531 67 343 12.0 18.0 0.00 0.00 0.00 86 1010.4
20260506174035 67 355 11.0 17.0 0.00 0.00 0.00 86 1010.3
20260506173055 68 360 6.0 16.0 0.00 0.00 0.00 87 1010.6
20260506172606 69 349 11.0 16.0 0.00 0.00 0.00 86 1010.7
20260506171604 73 360 8.0 21.0 0.00 0.00 0.00 83 1010.9
20260506171114 78 308 10.0 21.0 0.00 0.00 0.00 83 1010.9
20260506170618 79 144 1.0 2.0 0.00 0.00 0.00 87 1010.6
20260506170023 79 144 0.0 2.0 0.00 0.00 0.00 87 1010.7
20260506165538 79 144 1.0 2.0 0.00 0.00 0.00 87 1010.7
20260506165138 79 136 1.0 2.0 0.00 0.00 0.00 87 1010.7
20260506164547 79 144 0.0 2.0 0.00 0.00 0.00 87 1010.6
20260506163631 79 140 0.0 0.0 0.00 0.00 0.00 87 1010.7
20260506163038 79 140 0.0 0.0 0.00 0.00 0.00 87 1010.8
20260506162543 79 140 0.0 0.0 0.00 0.00 0.00 87 1010.8
20260506161611 78 140 0.0 4.0 0.00 0.00 0.00 88 1010.8
20260506161053 78 140 3.0 4.0 0.00 0.00 0.00 88 1010.7
20260506160113 78 138 3.0 5.0 0.00 0.00 0.00 88 1010.1
20260506155526 78 194 0.0 1.0 0.00 0.00 0.00 88 1010.0
20260506154547 78 204 0.0 0.0 0.00 0.00 0.00 88 1009.7
20260506154035 78 204 0.0 0.0 0.00 0.00 0.00 88 1009.7
20260506153035 78 174 1.0 7.0 0.00 0.00 0.00 88 1009.7
20260506152546 78 173 2.0 7.0 0.00 0.00 0.00 88 1009.6
20260506151608 78 148 3.0 6.0 0.00 0.00 0.00 89 1009.5
20260506151110 78 148 3.0 6.0 0.00 0.00 0.00 89 1009.5
20260506150622 77 107 3.0 6.0 0.00 0.00 0.00 89 1009.4
20260506150036 77 107 3.0 5.0 0.00 0.00 0.00 89 1009.7
20260506145535 77 212 0.0 4.0 0.00 0.00 0.00 89 1009.7
20260506144534 77 228 1.0 2.0 0.00 0.00 0.00 89 1009.8
20260506144046 77 163 0.0 3.0 0.00 0.00 0.00 89 1009.7
20260506143105 77 164 4.0 7.0 0.00 0.00 0.00 89 1009.3
20260506142618 77 164 4.0 8.0 0.00 0.00 0.00 89 1009.2
20260506142121 77 150 3.0 7.0 0.00 0.00 0.00 89 1009.1
20260506141547 77 123 3.0 8.0 0.00 0.00 0.00 89 1009.0
20260506141101 77 140 4.0 9.0 0.00 0.00 0.00 90 1008.9
20260506135604 77 122 4.0 7.0 0.00 0.00 0.00 90 1008.8
20260506135115 76 135 4.0 7.0 0.00 0.00 0.00 90 1008.8
20260506134542 76 171 4.0 8.0 0.00 0.00 0.00 90 1008.9
20260506134046 76 163 5.0 9.0 0.00 0.00 0.00 90 1008.8
20260506133534 76 154 6.0 9.0 0.00 0.00 0.00 90 1008.9
20260506133139 76 148 6.0 10.0 0.00 0.00 0.00 90 1008.8
20260506132526 76 149 7.0 10.0 0.00 0.00 0.00 90 1008.8
20260506131549 76 150 5.0 9.0 0.00 0.00 0.00 90 1008.8
20260506131059 76 148 5.0 8.0 0.00 0.00 0.00 90 1008.8
20260506130558 76 147 4.0 5.0 0.00 0.00 0.00 90 1008.8
20260506130030 76 142 4.0 5.0 0.00 0.00 0.00 90 1008.8
20260506125531 76 138 4.0 6.0 0.00 0.00 0.00 90 1008.8
20260506124600 76 162 4.0 6.0 0.00 0.00 0.00 90 1008.7
20260506124043 76 153 4.0 7.0 0.00 0.00 0.00 90 1008.7
20260506123045 76 163 5.0 7.0 0.00 0.00 0.00 90 1008.7
20260506122600 76 162 5.0 6.0 0.00 0.00 0.00 90 1008.7
20260506122059 76 161 4.0 6.0 0.00 0.00 0.00 90 1008.6
20260506121529 76 151 4.0 6.0 0.00 0.00 0.00 90 1008.6
20260506121041 76 182 1.0 5.0 0.00 0.00 0.00 90 1008.6
20260506120059 76 182 3.0 5.0 0.00 0.00 0.00 90 1008.7
20260506115603 76 187 3.0 5.0 0.00 0.00 0.00 90 1008.6
20260506115115 76 188 3.0 5.0 0.00 0.00 0.00 90 1008.5
20260506114540 76 129 4.0 6.0 0.00 0.00 0.00 90 1008.5
20260506114048 76 163 4.0 6.0 0.00 0.00 0.00 90 1008.4
20260506113047 76 157 4.0 6.0 0.00 0.00 0.00 90 1008.2
20260506112559 76 179 3.0 5.0 0.00 0.00 0.00 90 1008.2
20260506112051 76 174 3.0 7.0 0.00 0.00 0.00 90 1008.2
20260506111533 76 167 5.0 7.0 0.00 0.00 0.00 90 1008.2
20260506111042 76 160 5.0 7.0 0.00 0.00 0.00 90 1008.1
20260506110100 76 180 2.0 6.0 0.00 0.00 0.00 90 1008.1
20260506105611 76 202 3.0 7.0 0.00 0.00 0.00 90 1008.1
20260506104543 76 187 5.0 8.0 0.00 0.00 0.00 90 1008.0
20260506104056 76 172 4.0 8.0 0.00 0.00 0.00 90 1008.0
20260506103119 76 188 4.0 8.0 0.00 0.00 0.00 90 1007.8
20260506102528 76 185 6.0 9.0 0.00 0.00 0.00 90 1007.7
20260506102121 76 185 4.0 9.0 0.00 0.00 0.00 90 1007.6
20260506101537 76 150 7.0 10.0 0.00 0.00 0.00 90 1007.5
20260506101047 76 172 5.0 10.0 0.00 0.00 0.00 90 1007.5
20260506100106 76 183 6.0 10.0 0.00 0.00 0.00 90 1007.2
20260506095548 76 186 6.0 12.0 0.00 0.00 0.00 90 1007.1
20260506094611 76 191 7.0 10.0 0.00 0.00 0.00 90 1007.1
20260506094122 76 155 8.0 11.0 0.00 0.00 0.00 89 1007.1
20260506093121 76 172 10.0 14.0 0.00 0.00 0.00 89 1007.1
20260506092631 76 170 7.0 10.0 0.00 0.00 0.00 90 1007.2
20260506092111 76 178 6.0 12.0 0.00 0.00 0.00 90 1007.2
20260506091539 76 196 7.0 12.0 0.00 0.00 0.00 90 1007.1
20260506091042 76 192 8.0 13.0 0.00 0.00 0.00 90 1007.0
20260506090045 76 179 7.0 12.0 0.00 0.00 0.00 90 1006.9
20260506085536 76 184 9.0 12.0 0.00 0.00 0.00 90 1006.9
20260506085123 76 174 9.0 12.0 0.00 0.00 0.00 90 1006.9
20260506084546 76 175 7.0 10.0 0.00 0.00 0.00 90 1006.9
20260506084035 76 170 7.0 10.0 0.00 0.00 0.00 90 1006.9
20260506083058 76 171 10.0 13.0 0.00 0.00 0.00 90 1006.8
20260506082608 76 171 10.0 15.0 0.00 0.00 0.00 90 1006.9
20260506082110 76 158 10.0 15.0 0.00 0.00 0.00 90 1006.9
20260506081534 76 178 9.0 15.0 0.00 0.00 0.00 90 1007.0
20260506081037 76 169 11.0 15.0 0.00 0.00 0.00 90 1006.9
20260506080108 76 139 8.0 17.0 0.00 0.00 0.00 90 1007.0
20260506073026 76 157 13.0 18.0 0.00 0.00 0.00 90 1007.2
20260506072539 76 200 12.0 18.0 0.00 0.00 0.00 90 1007.2
20260506071558 76 191 10.0 19.0 0.00 0.00 0.00 90 1007.3
20260506071116 76 147 13.0 19.0 0.00 0.00 0.00 90 1007.4
20260506070525 76 148 11.0 17.0 0.00 0.00 0.00 89 1007.5
20260506062024 76 158 11.0 17.0 0.00 0.00 0.00 89 1007.8
20260506061543 76 175 9.0 14.0 0.00 0.00 0.00 90 1007.9
20260506061052 76 148 10.0 14.0 0.00 0.00 0.00 89 1007.9